Location: Boulder, CO
(40.0083°N, 105.2472°W)
Time: 07:27:50
(UTC-07:00)

SORCE - Visible Passes

Search period start: 23 November 2014 00:00
Search period end: 03 December 2014 00:00
Orbit: 592 x 624 km, 40.0° (Epoch: 21 November)

Date Brightness Start Highest point End Pass type
(mag) Time Alt. Az. Time Alt. Az. Time Alt. Az.
24 Nov 9.1 06:26:40 10° S 06:28:41 13° SE 06:30:40 10° ESE visible
27 Nov 8.8 05:22:50 10° S 05:25:35 16° SE 05:28:20 10° ESE visible
28 Nov 8.1 05:34:31 10° SSW 05:38:19 26° SSE 05:42:06 10° E visible
29 Nov 8.9 04:08:48 10° SSE 04:09:48 11° SE 04:11:01 10° SE visible
29 Nov 7.3 05:46:50 10° SW 05:51:07 40° SSE 05:55:22 10° E visible
30 Nov 8.2 04:21:58 19° SSE 04:22:28 19° SSE 04:25:43 10° E visible
30 Nov 6.6 05:59:30 10° WSW 06:04:00 58° SSE 06:08:28 10° E visible
01 Dec 7.5 04:34:54 31° SSE 04:35:12 31° SSE 04:39:13 10° E visible
01 Dec 6.2 06:12:22 10° WSW 06:16:56 77° SSE 06:21:29 10° E visible
02 Dec 6.7 04:47:40 46° S 04:48:01 47° SSE 04:52:24 10° E visible
02 Dec 6.1 06:25:20 10° W 06:29:56 89° S 06:34:29 10° E visible
